date,harmonis patrimoine,bench
03/04/2007,100,100
04/04/2007,100.0387704,100.012155
05/04/2007,100.105234,100.02431
10/04/2007,100.060925,100.0840719
11/04/2007,100.1716976,100.0962269
12/04/2007,100.166159,100.1083819
13/04/2007,100.1329272,100.1205368
16/04/2007,100.0110773,100.1549759
17/04/2007,100.0941567,100.1671309
18/04/2007,100.1329272,100.1792859
19/04/2007,100.1550817,100.1914409
20/04/2007,99.95015231,100.2035958
23/04/2007,100.105234,100.2400608
24/04/2007,100.1384658,100.2522158
25/04/2007,100.0553863,100.2633578
26/04/2007,100.0664636,100.2755128
27/04/2007,100.1218499,100.2876678
30/04/2007,100.0941567,100.3241327
02/05/2007,100.0498477,100.3484426
03/05/2007,100.0941567,100.3605976
04/05/2007,100.0720022,100.3727526
07/05/2007,100.166159,100.4092175
09/05/2007,100.1938521,100.4325146
10/05/2007,100.2824702,100.4446695
11/05/2007,100.2326225,100.4558116
14/05/2007,100.2603157,100.4902507
15/05/2007,100.2326225,100.5024057
16/05/2007,100.2436998,100.5145606
18/05/2007,100.1993908,100.5388706
21/05/2007,100.2880089,100.5743226
22/05/2007,100.3046248,100.5864776
23/05/2007,100.3101634,100.5986326
24/05/2007,100.4264747,100.6107875
25/05/2007,100.3655497,100.6229425
29/05/2007,100.3433952,100.6715624
30/05/2007,100.3877042,100.6837174
31/05/2007,100.3267793,100.6958724
01/06/2007,100.2990861,100.7080273
04/06/2007,100.4320133,100.7434794
05/06/2007,100.4763223,100.7556343
06/06/2007,100.6258654,100.7677893
07/06/2007,100.6535586,100.7789314
08/06/2007,100.631404,100.7910864
11/06/2007,100.4707837,100.8275513
12/06/2007,100.5926336,100.8397063
13/06/2007,100.5206314,100.8518612
14/06/2007,100.4486292,100.8650291
15/06/2007,100.481861,100.878197
18/06/2007,100.5815564,100.9166878
19/06/2007,100.5815564,100.9288427
20/06/2007,100.5594018,100.9420106
21/06/2007,100.6203268,100.9551785
22/06/2007,100.631404,100.9673335
25/06/2007,100.6037109,101.0058243
26/06/2007,100.6258654,101.0189921
27/06/2007,100.6258654,101.0311471
28/06/2007,100.5649405,101.044315
29/06/2007,100.5649405,101.0574829
02/07/2007,100.6480199,101.0959737
03/07/2007,100.6258654,101.1091416
04/07/2007,100.6646358,101.1212965
05/07/2007,100.7310994,101.1344644
06/07/2007,100.7310994,101.1476323
09/07/2007,100.7698698,101.1861231
10/07/2007,100.8695652,101.198278
11/07/2007,100.8695652,101.2114459
12/07/2007,100.7864857,101.2246138
13/07/2007,100.8529493,101.2367688
16/07/2007,100.858488,101.2752596
17/07/2007,100.8861811,101.2884274
18/07/2007,100.9692606,101.3015953
19/07/2007,100.8861811,101.3147632
20/07/2007,101.0468014,101.3269182
23/07/2007,100.9360288,101.365409
24/07/2007,101.0246469,101.3785769
25/07/2007,101.0191083,101.3917447
26/07/2007,101.0357242,101.4038997
27/07/2007,101.008031,101.4170676
30/07/2007,100.9471061,101.4555584
31/07/2007,100.9249515,101.4687263
01/08/2007,101.0468014,101.4818942
02/08/2007,100.9581833,101.4940491
03/08/2007,101.0634173,101.507217
06/08/2007,100.9803379,101.5457078
07/08/2007,100.8307948,101.5588757
08/08/2007,100.8252562,101.5720436
09/08/2007,100.9581833,101.5852114
10/08/2007,100.7587926,101.5983793
13/08/2007,100.5427859,101.637883
14/08/2007,100.5427859,101.650038
16/08/2007,100.6480199,101.6753609
17/08/2007,100.3101634,101.6885287
20/08/2007,100.3877042,101.7270195
21/08/2007,100.4486292,101.7391745
22/08/2007,100.4153974,101.7523424
23/08/2007,100.52617,101.7655103
24/08/2007,100.5040155,101.7776652
27/08/2007,100.5704791,101.8151431
28/08/2007,100.6590972,101.8272981
29/08/2007,100.5815564,101.839453
30/08/2007,100.5594018,101.8526209
31/08/2007,100.5538632,101.8668017
03/09/2007,100.7144835,101.9073183
04/09/2007,100.7421767,101.9214991
05/09/2007,100.8252562,101.9356799
06/09/2007,100.7698698,101.9478349
07/09/2007,100.797563,101.9610028
10/09/2007,100.6590972,101.9964548
11/09/2007,100.5538632,102.0086098
12/09/2007,100.5926336,102.0217777
13/09/2007,100.5981723,102.0349456
14/09/2007,100.6867904,102.0460876
17/09/2007,100.6480199,102.0815396
18/09/2007,100.4707837,102.0926817
19/09/2007,100.4043201,102.1058496
20/09/2007,100.5594018,102.1190175
21/09/2007,100.6203268,102.1321854
24/09/2007,100.797563,102.1706761
25/09/2007,100.8031016,102.183844
26/09/2007,100.7587926,102.1980248
27/09/2007,100.8474107,102.2111927
28/09/2007,100.8640266,102.2243606
01/10/2007,100.8418721,102.2628514
02/10/2007,100.9083356,102.2750063
03/10/2007,100.9914151,102.2871613
04/10/2007,101.0523401,102.2993163
05/10/2007,101.1520354,102.3114713
08/10/2007,101.2683467,102.3469233
09/10/2007,101.3514262,102.3600912
10/10/2007,101.4455829,102.3722461
11/10/2007,101.4732761,102.3844011
12/10/2007,101.5508169,102.3965561
15/10/2007,101.6615896,102.4340339
16/10/2007,101.6117419,102.4472018
17/10/2007,101.5895874,102.4603697
18/10/2007,101.6837441,102.4725247
19/10/2007,101.5397397,102.4856926
22/10/2007,101.5563556,102.5241833
23/10/2007,101.5009693,102.5373512
24/10/2007,101.6006646,102.5505191
25/10/2007,101.5175852,102.563687
26/10/2007,101.5563556,102.575842
29/10/2007,101.6449737,102.6153457
30/10/2007,101.6782055,102.6275006
31/10/2007,101.6338964,102.6406685
02/11/2007,101.7280532,102.6670043
05/11/2007,101.656051,102.706508
06/11/2007,101.6283578,102.718663
07/11/2007,101.6726669,102.7318308
08/11/2007,101.6615896,102.7449987
09/11/2007,101.6892827,102.7581666
12/11/2007,101.489892,102.7956445
13/11/2007,101.4455829,102.8077994
14/11/2007,101.4455829,102.8209673
15/11/2007,101.4455829,102.8331223
16/11/2007,101.3403489,102.8462902
19/11/2007,101.3292717,102.8857939
20/11/2007,100.9803379,102.8989618
21/11/2007,100.963722,102.9121297
22/11/2007,100.8197175,102.9252975
23/11/2007,100.7809471,102.9384654
26/11/2007,100.9692606,102.9779691
27/11/2007,100.9692606,102.9901241
28/11/2007,100.8418721,103.003292
29/11/2007,101.0412628,103.0164599
30/11/2007,101.1409582,103.0286148
03/12/2007,101.323733,103.0681185
04/12/2007,101.2849626,103.0802735
05/12/2007,101.0966491,103.0924285
06/12/2007,101.218499,103.1045834
07/12/2007,101.2461922,103.1167384
10/12/2007,101.2683467,103.1542163
11/12/2007,101.3292717,103.1673841
12/12/2007,101.3015785,103.180552
13/12/2007,101.4123511,103.1937199
14/12/2007,101.2406536,103.2058749
17/12/2007,101.2406536,103.2433527
18/12/2007,101.1797286,103.2555077
19/12/2007,101.1797286,103.2686756
20/12/2007,101.1631127,103.2808306
21/12/2007,101.1520354,103.2939985
24/12/2007,101.2461922,103.3314763
27/12/2007,101.2240377,103.3689542
28/12/2007,101.2628081,103.3800962
31/12/2007,101.2960399,103.4165612
02/01/2008,101.3957353,103.441884
03/01/2008,101.3126558,103.4550519
04/01/2008,101.2406536,103.4682198
07/01/2008,101.1077264,103.5077235
08/01/2008,101.0578787,103.5208914
09/01/2008,101.0191083,103.5340593
10/01/2008,100.9471061,103.5472271
11/01/2008,100.8418721,103.5593821
14/01/2008,100.8031016,103.5978729
15/01/2008,100.8640266,103.6110408
16/01/2008,100.7200222,103.6242087
17/01/2008,100.692329,103.6363636
18/01/2008,100.631404,103.6495315
21/01/2008,100.8363334,103.6880223
22/01/2008,100.5206314,103.7011902
23/01/2008,100.6867904,103.7143581
24/01/2008,100.3378565,103.727526
25/01/2008,100.8307948,103.7406938
28/01/2008,100.797563,103.7791846
29/01/2008,100.7477153,103.7923525
30/01/2008,100.7809471,103.8055204
31/01/2008,100.7421767,103.8197012
01/02/2008,100.7532539,103.8328691
04/02/2008,100.8529493,103.8723728
05/02/2008,100.902797,103.8855406
06/02/2008,100.6978676,103.8987085
07/02/2008,100.7310994,103.9118764
08/02/2008,100.6812517,103.9250443
11/02/2008,100.6978676,103.9635351
12/02/2008,100.6092495,103.976703
13/02/2008,100.6258654,103.9898709
14/02/2008,100.6646358,104.0030387
15/02/2008,100.6978676,104.0162066
18/02/2008,100.6646358,104.0546974
19/02/2008,100.7200222,104.0678653
20/02/2008,100.6535586,104.0810332
21/02/2008,100.6424813,104.0942011
22/02/2008,100.6646358,104.107369
25/02/2008,100.7200222,104.1468726
26/02/2008,100.7864857,104.1590276
27/02/2008,100.8141789,104.1721955
28/02/2008,100.7920244,104.1853634
29/02/2008,100.8086403,104.1985313
03/03/2008,100.797563,104.2380349
04/03/2008,100.7920244,104.2512028
05/03/2008,100.8141789,104.2643707
06/03/2008,100.8031016,104.2775386
07/03/2008,100.8086403,104.2907065
10/03/2008,100.7864857,104.3302102
11/03/2008,100.7587926,104.344391
12/03/2008,100.8031016,104.3575589
13/03/2008,100.7864857,104.3697139
14/03/2008,100.7698698,104.3828817
17/03/2008,100.6701745,104.4223854
18/03/2008,100.6590972,104.4365662
19/03/2008,100.6812517,104.4497341
20/03/2008,100.6757131,104.462902
25/03/2008,100.692329,104.5307673
26/03/2008,100.7643312,104.5439352
27/03/2008,100.7754085,104.5571031
28/03/2008,100.8086403,104.5712839
31/03/2008,100.8031016,104.6107875
01/04/2008,100.8363334,104.6239554
02/04/2008,100.8861811,104.6371233
03/04/2008,100.9415674,104.6502912
04/04/2008,100.9747992,104.6634591
07/04/2008,101.008031,104.7019499
08/04/2008,101.008031,104.7151178
09/04/2008,101.0246469,104.7282856
10/04/2008,101.0578787,104.7404406
11/04/2008,101.0855719,104.7536085
14/04/2008,101.1243423,104.7931122
15/04/2008,101.1077264,104.8052672
16/04/2008,101.1077264,104.818435
17/04/2008,101.1243423,104.8316029
18/04/2008,101.1188037,104.8447708
21/04/2008,101.1797286,104.8832616
22/04/2008,101.1686513,104.8954166
23/04/2008,101.2129604,104.9085845
24/04/2008,101.2351149,104.9217523
25/04/2008,101.2628081,104.9349202
28/04/2008,101.3071171,104.9754368
29/04/2008,101.3514262,104.9886047
30/04/2008,101.3735807,105.0027855
02/05/2008,101.3791194,105.0291213
05/05/2008,101.4178898,105.0696379
06/05/2008,101.4732761,105.0828058
07/05/2008,101.4954306,105.0959737
09/05/2008,101.6505123,105.1212965
13/05/2008,101.6449737,105.1719423
14/05/2008,101.6117419,105.1851102
15/05/2008,101.6283578,105.199291
16/05/2008,101.6505123,105.2124589
19/05/2008,101.6782055,105.2509496
20/05/2008,101.6726669,105.2641175
21/05/2008,101.6671282,105.2772854
22/05/2008,101.656051,105.2904533
23/05/2008,101.6394351,105.3036212
26/05/2008,101.6449737,105.3441378
27/05/2008,101.6394351,105.3573056
28/05/2008,101.6671282,105.3704735
29/05/2008,101.6505123,105.3836414
30/05/2008,101.6837441,105.3978222
02/06/2008,101.7280532,105.4373259
03/06/2008,101.7114373,105.4515067
04/06/2008,101.7114373,105.4646746
05/06/2008,101.6837441,105.4778425
06/06/2008,101.6726669,105.4899975
09/06/2008,101.5785101,105.5295011
10/06/2008,101.5618942,105.5436819
11/06/2008,101.5342011,105.5568498
12/06/2008,101.5175852,105.5700177
13/06/2008,101.5065079,105.5831856
16/06/2008,101.489892,105.6226893
17/06/2008,101.5286624,105.6368701
18/06/2008,101.5286624,105.650038
19/06/2008,101.5009693,105.6632059
20/06/2008,101.4843534,105.6763738
23/06/2008,101.489892,105.7158774
24/06/2008,101.4677375,105.7290453
25/06/2008,101.4954306,105.7422132
26/06/2008,101.5231238,105.7543682
27/06/2008,101.5009693,105.7675361
30/06/2008,101.4954306,105.8060268
01/07/2008,101.4511216,105.8191947
02/07/2008,101.4012739,105.8313497
03/07/2008,101.3901966,105.8445176
04/07/2008,101.4455829,105.8576855
07/07/2008,101.5452783,105.8971892
08/07/2008,101.5508169,105.9093441
09/07/2008,101.5342011,105.9235249
10/07/2008,101.5452783,105.9377057
11/07/2008,101.5065079,105.9518866
15/07/2008,101.5508169,106.0075969
16/07/2008,101.5452783,106.0217777
17/07/2008,101.5397397,106.0359585
18/07/2008,101.5009693,106.0501393
21/07/2008,101.489892,106.0926817
22/07/2008,101.5065079,106.1068625
23/07/2008,101.5175852,106.1210433
24/07/2008,101.6062033,106.1352241
25/07/2008,101.6172805,106.1494049
28/07/2008,101.6726669,106.1919473
29/07/2008,101.7058986,106.2061281
30/07/2008,101.7834395,106.2203089
31/07/2008,101.8222099,106.2344897
01/08/2008,101.8166713,106.2486705
04/08/2008,101.8443644,106.291213
05/08/2008,101.866519,106.3053938
06/08/2008,101.8997508,106.3195746
07/08/2008,101.9274439,106.3337554
08/08/2008,102.0105234,106.3479362
11/08/2008,102.076987,106.3904786
12/08/2008,102.0991415,106.4046594
13/08/2008,102.1323733,106.4188402
14/08/2008,102.1434506,106.433021
18/08/2008,102.2320687,106.4897442
19/08/2008,102.2320687,106.503925
20/08/2008,102.2376073,106.5181058
21/08/2008,102.2320687,106.5322867
22/08/2008,102.2320687,106.5464675
25/08/2008,102.2486846,106.587997
26/08/2008,102.3096095,106.6021778
27/08/2008,102.3040709,106.6163586
28/08/2008,102.2929936,106.6305394
29/08/2008,102.2985323,106.6457331
01/09/2008,102.34838,106.6882755
02/09/2008,102.3373027,106.7024563
03/09/2008,102.3428413,106.7166371
04/09/2008,102.3705345,106.7308179
05/09/2008,102.4093049,106.7449987
08/09/2008,102.4314594,106.7885541
09/09/2008,102.4259208,106.801722
10/09/2008,102.4369981,106.8159028
11/09/2008,102.4203822,106.8300836
12/09/2008,102.4093049,106.8442644
15/09/2008,102.4425367,106.8868068
16/09/2008,102.4369981,106.9009876
17/09/2008,102.4037663,106.9161813
18/09/2008,102.3760731,106.9303621
19/09/2008,102.4093049,106.9445429
22/09/2008,102.3096095,106.9880983
23/09/2008,102.3096095,107.003292
24/09/2008,102.2819164,107.0174728
25/09/2008,102.287455,107.0316536
26/09/2008,102.2708391,107.0448215
29/09/2008,102.2985323,107.0853381
30/09/2008,102.2763777,107.098506
01/10/2008,102.2542232,107.1126868
02/10/2008,102.2542232,107.1268676
03/10/2008,102.22653,107.1410484
06/10/2008,102.1656051,107.1825779
07/10/2008,102.0437552,107.1977716
08/10/2008,101.6948214,107.2129653
09/10/2008,101.5342011,107.2261332
10/10/2008,101.1298809,107.2393011
13/10/2008,101.3015785,107.2777918
14/10/2008,101.3071171,107.2899468
15/10/2008,101.17419,107.3031147
16/10/2008,100.8972584,107.3152697
17/10/2008,101.0191083,107.3274247
20/10/2008,101.0024924,107.3638896
21/10/2008,100.9914151,107.3760446
22/10/2008,100.7089449,107.3881995
23/10/2008,100.6978676,107.4003545
24/10/2008,100.5206314,107.4125095
27/10/2008,100.3655497,107.4489744
28/10/2008,100.3710883,107.4611294
29/10/2008,100.631404,107.4732844
30/10/2008,100.7366381,107.4854394
31/10/2008,100.8474107,107.4975943
03/11/2008,100.9249515,107.5340593
04/11/2008,101.17419,107.5452013
05/11/2008,101.1852672,108.1053326
06/11/2008,101.0578787,107.2651357
07/11/2008,101.2129604,107.2651357
10/11/2008,101.2351149,106.98507
11/11/2008,101.2351149,104.4644794
12/11/2008,101.0412628,103.3442169
13/11/2008,101.0191083,106.1448731
14/11/2008,101.0468014,107.2651357
17/11/2008,100.9858765,107.2651357
18/11/2008,100.9969538,107.2651357
19/11/2008,100.8806425,107.2651357
20/11/2008,100.8031016,107.2651357
21/11/2008,100.6867904,107.2651357
24/11/2008,100.9415674,107.2651357
25/11/2008,100.963722,107.2651357
26/11/2008,100.9360288,108.3853982
27/11/2008,101.1077264,107.5452013
28/11/2008,101.068956,107.5452013
01/12/2008,100.9692606,107.2651357
02/12/2008,101.0135696,107.2651357
03/12/2008,101.068956,106.7050044
04/12/2008,101.0191083,103.6242825
05/12/2008,100.8640266,102.7840856
08/12/2008,101.1188037,103.0641512
09/12/2008,101.0634173,94.94224804
10/12/2008,101.1077264,107.2651357
11/12/2008,101.1464968,107.2651357
12/12/2008,101.0135696,107.2651357
15/12/2008,100.963722,107.2651357
16/12/2008,101.0357242,107.2651357
17/12/2008,101.0966491,107.2651357
18/12/2008,101.1963445,107.2651357
19/12/2008,101.1908059,107.2651357
22/12/2008,101.2406536,107.2651357
23/12/2008,101.2628081,107.2651357
24/12/2008,101.3126558,107.2651357
29/12/2008,101.3514262,106.98507
30/12/2008,101.4788147,107.825267
31/12/2008,101.5231238,106.4249388
02/01/2009,101.70036,105.3046763
05/01/2009,101.7557463,104.4644794
06/01/2009,101.8554417,103.0641512
07/01/2009,101.7779009,103.3442169
08/01/2009,101.8775962,106.98507
09/01/2009,101.9772916,106.7050044
12/01/2009,101.8609803,106.1448731
13/01/2009,101.6782055,114.2667764
14/01/2009,101.1631127,114.2667764
15/01/2009,100.9304902,113.9867108
16/01/2009,100.8972584,113.9867108
19/01/2009,100.5760177,113.9867108
20/01/2009,100.3433952,113.7066451
21/01/2009,100.4929382,113.7066451
22/01/2009,100.6037109,113.7066451
23/01/2009,100.4597065,113.9867108
26/01/2009,100.6646358,113.9867108
27/01/2009,100.2935475,114.2667764
28/01/2009,100.8252562,114.2667764
29/01/2009,101.0855719,115.9471702
30/01/2009,100.9415674,113.9867108
02/02/2009,100.8529493,113.1465139
03/02/2009,100.8751038,112.306317
04/02/2009,101.0911105,113.4265795
05/02/2009,101.2240377,113.7066451
06/02/2009,101.5175852,113.7066451
09/02/2009,101.7335918,113.9867108
10/02/2009,101.2517308,113.9867108
11/02/2009,101.1520354,113.9867108
12/02/2009,101.3181944,113.9867108
13/02/2009,101.428967,113.9867108
16/02/2009,101.1686513,113.9867108
17/02/2009,100.8751038,113.9867108
18/02/2009,100.8861811,113.9867108
19/02/2009,100.6258654,113.9867108
20/02/2009,100.3323179,113.9867108
23/02/2009,100.3212407,113.9867108
24/02/2009,100.1218499,113.9867108
25/02/2009,100.0276932,113.9867108
26/02/2009,99.96122958,113.7066451
27/02/2009,99.81722515,113.4265795
02/03/2009,99.47382996,114.2667764
03/03/2009,99.41290501,113.4265795
04/03/2009,99.62891166,113.1465139
05/03/2009,99.14705068,113.4265795
06/03/2009,98.94765993,113.9867108
09/03/2009,98.83688729,118.4677609
10/03/2009,99.36859596,114.546842
11/03/2009,99.4627527,118.1876952
12/03/2009,99.67322071,115.9471702
13/03/2009,99.64552755,114.8269077
16/03/2009,100.0332318,113.4265795
17/03/2009,99.81722515,112.306317
18/03/2009,99.70645251,112.0262514
19/03/2009,99.91692052,112.0262514
20/03/2009,100.2049294,112.5863827
23/03/2009,100.8252562,112.5863827
24/03/2009,100.7089449,112.8664482
25/03/2009,100.8197175,112.8664482
26/03/2009,100.8806425,110.0657919
27/03/2009,100.8307948,106.98507
30/03/2009,100.1495431,104.1844138
31/03/2009,100.5095541,113.4265795
01/04/2009,100.7587926,115.6671046
02/04/2009,101.384658,120.1481546
03/04/2009,101.4068125,119.6440365
06/04/2009,101.279424,124.8532571
07/04/2009,101.2461922,128.4941103
08/04/2009,101.4788147,113.4265795
09/04/2009,101.866519,106.8730438
14/04/2009,102.1932983,106.8730438
15/04/2009,102.34838,108.6756141
16/04/2009,102.7527001,108.6796657
17/04/2009,102.9631681,108.6847303
20/04/2009,102.6751592,108.6978982
21/04/2009,102.6585433,108.7019499
22/04/2009,102.8247023,108.7070144
23/04/2009,102.8025478,108.7110661
24/04/2009,103.0296317,108.7141048
27/04/2009,103.0130158,108.7252469
28/04/2009,102.9077818,108.7282856
29/04/2009,102.9410136,108.7313244
30/04/2009,103.1514816,108.7343631
04/05/2009,103.6665744,108.747531
05/05/2009,103.6887289,108.7505698
06/05/2009,103.8050402,108.7536085
07/05/2009,103.8271947,108.7566473
11/05/2009,103.8770424,108.7688022
12/05/2009,103.8327333,108.7728539
13/05/2009,103.5613403,108.7769055
14/05/2009,103.5114927,108.7799443
15/05/2009,103.5834949,108.7839959
18/05/2009,103.9268901,108.795138
19/05/2009,103.943506,108.7991897
20/05/2009,103.8936583,108.8032413
22/05/2009,103.7939629,108.8123576
25/05/2009,103.7219607,108.8275513
26/05/2009,103.716422,108.8326159
27/05/2009,103.8050402,108.8366675
28/05/2009,103.716422,108.8407192
29/05/2009,103.6554971,108.8447708
02/06/2009,103.7330379,108.8599645
03/06/2009,104.0598172,108.8630033
04/06/2009,103.9601218,108.867055
05/06/2009,103.8161174,108.8700937
08/06/2009,103.7496538,108.8792099
09/06/2009,103.7607311,108.8832616
10/06/2009,103.8161174,108.8863003
11/06/2009,103.8659651,108.890352
12/06/2009,103.943506,108.8944036
15/06/2009,104.1872058,108.9065586
16/06/2009,103.9213514,108.9106103
17/06/2009,103.777347,108.9146619
18/06/2009,103.7884243,108.9187136
19/06/2009,103.9213514,108.9227653
22/06/2009,103.8327333,108.9349202
23/06/2009,103.7884243,108.9389719
24/06/2009,103.8271947,108.9440365
25/06/2009,104.0598172,108.9470752
26/06/2009,104.0819718,108.950114
29/06/2009,104.3422875,108.9582173
30/06/2009,104.1373581,108.9602431
01/07/2009,104.1872058,108.9632818
02/07/2009,104.2315148,108.9653077
03/07/2009,104.2370534,108.9683464
06/07/2009,104.2702852,108.9754368
07/07/2009,104.1927444,108.9784756
08/07/2009,104.2647466,108.9815143
09/07/2009,104.198283,108.9835401
10/07/2009,104.1927444,108.9865789
13/07/2009,104.3256716,108.9936693
15/07/2009,104.3145943,108.9987339
16/07/2009,104.3145943,109.0017726
17/07/2009,104.3699806,109.0048113
20/07/2009,104.3755192,109.0119017
21/07/2009,104.4973691,109.0149405
22/07/2009,104.4973691,109.0169663
23/07/2009,104.4807533,109.0200051
24/07/2009,104.5029078,109.0230438
27/07/2009,104.4419828,109.0301342
28/07/2009,104.5029078,109.033173
29/07/2009,104.6247577,109.0351988
30/07/2009,104.680144,109.0382375
31/07/2009,104.8739961,109.0402634
03/08/2009,104.7909166,109.0483667
04/08/2009,104.7632235,109.0514054
05/08/2009,104.7798394,109.0534312
06/08/2009,104.8518416,109.05647
07/08/2009,104.7299917,109.0584958
10/08/2009,104.7798394,109.0665991
11/08/2009,104.8795348,109.068625
12/08/2009,104.9459983,109.0716637
13/08/2009,105.0955414,109.0747025
14/08/2009,105.3613957,109.0767283
17/08/2009,105.4057048,109.0848316
18/08/2009,105.2783163,109.0868574
19/08/2009,105.4555525,109.0898962
20/08/2009,106.27527,109.091922
21/08/2009,106.0758793,109.0949607
24/08/2009,106.3472722,109.1020512
25/08/2009,106.3472722,109.1050899
26/08/2009,106.6463583,109.1071157
27/08/2009,106.590972,109.1101545
28/08/2009,106.6242038,109.1121803
31/08/2009,106.5245084,109.1202836
01/09/2009,106.4635835,109.1223094
02/09/2009,106.3860426,109.1253482
03/09/2009,106.4026585,109.127374
04/09/2009,106.5411243,109.1304128
07/09/2009,106.6075879,109.1375032
08/09/2009,106.4801994,109.1405419
09/09/2009,106.3971199,109.1435807
10/09/2009,106.4469676,109.1456065
11/09/2009,106.7183606,109.1486452
14/09/2009,106.6795901,109.1557356
15/09/2009,106.6685129,109.1587744
16/09/2009,106.7460537,109.1618131
17/09/2009,106.6629742,109.1638389
18/09/2009,106.6020493,109.1668777
21/09/2009,106.5078926,109.1739681
22/09/2009,106.5798948,109.1770068
23/09/2009,106.6408197,109.1800456
24/09/2009,106.6131266,109.1820714
25/09/2009,106.6740515,109.1851102
28/09/2009,106.6851288,109.1922006
29/09/2009,106.9288286,109.1952393
30/09/2009,107.028524,109.198278
01/10/2009,107.0506785,109.2003039
02/10/2009,107.0174467,109.2033426
05/10/2009,107.0562171,109.2114459
06/10/2009,106.9343672,109.2134718
07/10/2009,107.2223761,109.2165105
08/10/2009,107.2888397,109.2185363
09/10/2009,107.1559125,109.2215751
12/10/2009,107.1725284,109.2286655
13/10/2009,107.1448352,109.2317042
14/10/2009,107.1226807,109.234743
15/10/2009,107.0229853,109.2377817
16/10/2009,106.9952922,109.2398075
19/10/2009,106.9952922,109.2479109
20/10/2009,107.0783716,109.2499367
21/10/2009,106.8789809,109.2529754
22/10/2009,106.7682083,109.2550013
23/10/2009,106.7515924,109.25804
26/10/2009,106.6352811,109.2651304
27/10/2009,106.6740515,109.2681692
28/10/2009,106.5854334,109.270195
29/10/2009,106.6740515,109.2732337
30/10/2009,106.7682083,109.2762725
02/11/2009,106.7294378,109.2843758
03/11/2009,106.6574356,109.2864016
04/11/2009,106.6795901,109.2884274
05/11/2009,106.5522016,109.2914662
06/11/2009,106.5798948,109.293492
09/11/2009,106.6408197,109.3015953
10/11/2009,106.6629742,109.3046341
12/11/2009,106.651897,109.3107116
13/11/2009,106.5798948,109.3127374
16/11/2009,106.5023539,109.3208407
17/11/2009,106.6685129,109.3228665
18/11/2009,106.6352811,109.3259053
19/11/2009,106.6297425,109.3279311
20/11/2009,106.6629742,109.3309699
23/11/2009,106.4968153,109.3390732
24/11/2009,106.6463583,109.341099
25/11/2009,106.5411243,109.3441378
26/11/2009,106.590972,109.3461636
27/11/2009,106.5965107,109.3492023
30/11/2009,106.5134312,109.3573056
01/12/2009,106.6075879,109.3593315
02/12/2009,106.6075879,109.3623702
03/12/2009,106.4968153,109.364396